Vorticity
5 5 5 6 6 6 7 7 7 6 7 8 8 7 7 7 7 6 5 5 4 3 2 2 3 3 4 4 5 6 7 9 10 12 12 12 12 12 13 13 13 13 13 12 11 10 10 10 10 10 10 9 9 8 7 6 5 5 4 4 4 4 4 4 3 3 3 3 4 4 5 5 6 7 7 7 6 6 6 6 6 6 5 5 5 5
5 6 6 7 7 6 6 7 7 7 7 8 8 7 6 6 6 5 4 4 3 3 3 3 3 4 5 5 6 6 8 9 11 12 12 12 12 12 13 13 13 13 12 11 10 10 10 10 10 10 10 9 8 8 7 6 5 5 4 4 4 4 4 4 4 3 3 3 4 4 5 6 6 7 7 7 7 6 6 6 6 6 6 5 5 5
5 5 6 7 7 7 6 7 7 7 7 7 7 7 6 6 5 4 4 3 3 3 3 4 4 5 5 6 6 7 8 10 11 12 12 12 12 12 13 13 13 13 12 11 10 10 10 10 10 10 10 9 8 7 6 6 5 5 4 4 4 4 4 4 4 3 3 3 4 4 5 6 7 7 7 7 7 7 6 6 6 6 6 5 5 5
5 5 6 7 8 8 7 7 7 7 7 7 7 6 6 6 5 4 4 3 3 3 4 4 5 6 6 6 7 7 8 10 11 12 12 12 12 13 13 13 13 12 12 11 10 10 10 10 10 10 9 9 8 7 6 5 5 5 4 4 4 4 4 4 4 3 3 3 4 5 5 6 7 7 7 7 7 7 7 6 6 6 6 6 6 6
6 6 6 7 8 8 8 7 6 6 6 6 6 6 6 5 5 4 4 4 4 4 4 5 6 6 7 7 7 8 9 10 11 11 11 12 12 13 14 14 13 12 11 11 10 10 10 10 10 10 9 8 7 6 6 5 5 5 5 5 4 4 4 4 3 3 3 4 4 5 6 7 7 8 8 8 8 7 7 7 6 6 6 6 6 6
6 6 7 8 8 7 7 6 6 6 6 6 6 6 6 5 5 5 4 4 4 5 5 6 7 7 7 7 7 8 10 11 11 11 11 12 13 13 14 14 13 12 11 11 11 11 11 10 10 10 9 8 7 6 6 5 5 5 5 5 5 4 4 4 3 3 3 4 5 6 7 7 8 8 8 8 8 7 7 7 6 6 6 6 6 6
6 7 8 8 8 8 7 6 6 6 5 6 6 6 6 6 6 5 5 5 5 5 6 6 7 7 7 8 8 9 10 11 11 11 11 12 13 14 14 14 13 12 11 11 11 11 11 10 10 9 8 7 7 6 6 5 5 5 5 5 5 4 4 4 3 3 4 4 5 6 7 8 8 9 9 8 8 7 7 7 6 6 6 6 6 7
6 7 9 8 8 7 6 6 6 5 5 5 6 6 6 6 6 6 6 6 6 6 7 7 7 8 8 8 9 9 10 11 11 11 12 13 14 14 14 13 12 12 11 11 11 11 11 10 9 9 8 7 6 6 6 5 5 5 5 5 5 4 4 4 3 3 4 5 6 7 8 8 9 9 9 8 8 7 7 6 6 6 6 6 7 7
7 7 8 8 7 7 6 6 6 6 5 5 5 6 6 6 6 6 6 7 7 7 7 8 8 9 9 9 10 10 11 11 11 12 12 13 14 14 13 13 12 11 11 11 11 11 11 10 9 8 7 6 6 6 6 6 5 5 5 5 5 4 4 3 3 4 4 5 6 7 8 9 9 9 8 8 7 7 7 6 6 6 6 6 7 7
8 7 7 7 7 7 6 6 6 6 6 5 5 5 5 6 6 6 6 7 8 8 9 9 9 9 9 10 10 10 11 11 12 12 13 14 14 14 13 12 11 11 11 11 11 11 10 9 8 7 7 6 6 6 6 6 6 5 5 5 4 4 3 3 4 4 5 6 7 8 9 9 9 9 8 8 7 7 7 6 6 6 6 7 7 7
8 8 7 7 7 6 6 6 6 6 6 6 6 6 5 6 6 7 7 8 8 9 9 10 10 10 9 10 10 11 11 11 12 13 15 15 15 14 12 11 11 11 12 12 11 11 10 9 8 7 7 6 6 6 6 6 6 5 5 4 4 4 3 4 4 5 6 7 8 9 9 9 9 9 8 8 7 7 7 6 6 6 7 7 7 8
7 7 7 7 7 7 6 6 6 6 6 6 6 6 6 7 7 7 7 8 8 9 9 10 10 11 10 10 10 11 11 12 13 14 16 16 15 13 12 11 11 11 12 11 10 10 9 8 7 7 7 6 6 6 6 6 6 5 5 4 4 4 4 4 5 6 7 8 8 9 9 9 9 9 8 8 7 7 7 7 7 7 7 7 8 8
7 7 7 7 7 7 7 7 7 7 6 6 7 7 8 8 8 7 8 8 9 9 10 10 11 11 12 11 11 11 11 13 14 15 16 15 13 12 11 11 12 12 11 10 9 8 8 8 7 7 7 6 6 6 6 6 5 5 4 4 3 4 4 5 6 7 8 8 9 9 9 9 9 8 8 7 7 7 7 7 7 7 8 8 8 8
7 7 7 7 7 7 7 7 7 7 7 7 8 8 9 9 9 9 9 10 10 10 11 11 11 11 11 11 11 12 12 13 15 16 16 14 12 12 12 12 12 12 11 10 9 8 8 8 7 7 7 7 7 6 6 5 5 4 3 3 3 4 5 6 7 8 8 9 9 9 9 8 8 8 7 7 7 7 7 8 8 8 8 8 8 9
7 7 7 7 7 7 7 7 8 8 8 8 8 9 9 9 9 9 10 10 10 11 11 12 12 12 12 12 12 12 13 15 16 16 14 13 12 12 12 12 12 11 9 9 8 8 8 8 7 7 7 7 7 6 6 5 4 3 3 3 4 5 6 7 8 8 9 9 9 9 8 8 8 8 7 8 8 8 8 9 9 9 9 9 9 9
8 8 8 7 7 8 8 8 8 9 9 9 9 9 9 9 9 9 10 10 10 11 11 11 12 12 14 13 13 13 14 16 16 15 13 13 12 13 12 12 11 10 8 8 8 8 8 8 8 7 7 7 7 6 5 4 3 3 3 4 5 6 7 8 9 9 9 9 9 9 8 8 8 8 8 8 9 9 9 9 9 9 9 9 9 9
8 8 8 8 8 9 9 9 9 9 9 9 9 9 9 9 9 10 10 11 11 12 12 12 12 12 13 13 15 16 16 16 16 14 12 12 13 13 12 11 10 9 8 8 8 8 8 8 8 8 8 7 6 5 4 4 3 4 5 6 7 8 9 9 10 10 10 9 9 8 8 8 8 8 9 9 9 10 10 10 10 10 10 10 10 9
8 9 9 9 9 10 10 10 9 9 9 9 9 9 9 10 10 11 11 12 12 12 12 13 14 14 13 13 14 15 16 16 15 13 12 12 12 13 12 11 10 8 8 8 8 8 8 8 8 8 7 6 5 4 4 4 4 5 7 8 9 9 10 10 10 10 10 9 8 8 8 8 9 9 10 10 10 11 11 10 10 10 10 10 10 9
9 9 9 9 9 10 10 10 10 10 10 9 9 10 10 11 11 12 12 12 13 13 13 13 15 16 16 14 14 14 16 15 13 12 12 11 11 11 11 10 9 8 8 9 9 8 9 9 8 7 6 5 4 4 4 5 6 7 9 9 10 10 10 10 10 10 9 9 9 9 9 9 10 10 11 11 11 11 11 10 10 10 10 9 9 9
10 9 9 9 10 10 10 10 10 10 10 9 10 10 11 11 12 12 13 13 13 14 14 15 15 16 16 14 14 14 14 13 12 12 11 10 10 10 9 8 8 9 9 9 9 9 9 8 7 6 5 5 5 5 6 7 9 10 10 11 11 11 11 11 10 10 9 9 9 10 10 10 11 11 11 11 11 11 11 10 10 9 9 9 9 9
10 10 10 9 9 9 10 10 9 9 10 10 11 12 12 12 12 13 13 13 14 14 15 16 16 15 15 14 14 14 13 12 12 12 12 10 9 8 8 8 9 9 10 10 9 9 8 7 6 5 5 5 6 7 9 10 11 11 11 11 11 11 11 10 10 10 9 9 10 10 10 11 11 11 11 11 11 11 10 10 9 9 9 9 9 9
9 10 10 9 9 10 9 9 10 10 10 11 12 12 11 12 12 13 13 13 14 15 15 16 15 14 14 13 13 13 12 12 12 12 13 10 8 8 9 9 9 10 10 9 9 8 7 6 6 5 6 7 8 9 10 11 11 11 11 11 10 10 10 10 9 9 9 9 9 10 10 11 11 11 11 11 10 10 9 9 9 9 9 9 9 9
9 9 9 9 10 10 10 10 10 11 11 12 12 12 12 12 12 12 12 13 14 14 15 15 14 13 12 12 12 13 13 13 13 13 11 8 8 9 9 9 10 10 10 9 7 6 5 5 5 6 7 8 9 10 10 10 10 10 10 10 10 10 9 9 9 9 8 9 9 10 10 11 11 11 11 10 10 9 9 9 9 9 9 9 9 10
9 9 9 10 10 11 11 11 11 11 11 12 12 12 12 13 13 13 13 14 15 15 15 13 12 12 12 12 13 13 13 13 13 11 8 7 8 10 10 10 10 9 9 7 6 5 4 5 6 7 8 9 9 10 10 10 10 10 10 9 9 9 9 9 8 8 8 9 10 10 11 11 11 11 10 10 9 9 9 9 9 9 9 10 10 10
9 10 10 10 11 11 11 11 11 11 11 12 12 12 13 13 14 14 15 15 15 14 13 12 12 12 13 13 13 13 13 12 11 9 7 7 9 10 10 10 9 8 7 6 4 4 4 5 7 8 9 9 10 10 10 9 9 9 9 9 9 9 9 9 9 9 9 10 11 11 11 11 11 10 10 10 9 9 9 9 9 9 10 10 10 11
10 10 11 11 11 11 11 11 11 11 12 12 12 13 13 14 14 15 15 14 13 12 12 11 11 12 12 12 12 12 12 11 9 8 8 9 9 10 10 9 8 6 5 4 4 4 5 6 7 8 9 9 9 9 9 9 9 9 9 9 9 9 9 9 10 10 10 11 11 11 11 11 10 10 10 9 9 9 10 10 10 10 10 10 11 12
10 11 11 11 11 12 12 12 12 12 12 13 13 13 14 14 14 14 14 13 12 11 11 11 11 11 11 11 10 10 11 10 9 8 9 9 10 9 9 8 6 5 4 4 4 4 6 7 8 9 9 9 9 9 9 9 9 9 9 9 10 10 10 10 10 10 11 11 11 11 11 10 10 10 10 9 10 10 10 10 10 10 10 11 11 11
11 11 12 12 12 12 13 13 13 13 13 13 14 14 14 14 13 13 12 12 11 11 11 11 11 11 10 10 10 10 10 10 9 9 10 9 9 8 7 6 5 4 3 4 5 6 7 8 9 8 8 8 8 8 8 9 9 9 9 10 10 10 10 10 10 10 11 11 11 11 11 10 10 10 9 9 9 10 10 10 10 10 10 11 11 10
12 13 13 13 13 13 13 13 13 13 13 14 14 14 13 12 12 11 11 11 11 11 11 11 11 10 9 9 9 10 10 10 10 10 9 8 7 6 5 5 4 4 4 5 6 7 9 9 9 8 8 7 8 8 8 9 9 9 10 10 10 10 10 10 10 10 10 11 10 10 10 10 9 9 9 9 9 9 10 10 10 10 10 10 10 9
14 14 15 14 14 13 13 13 13 14 14 13 13 13 12 11 10 10 11 11 11 12 12 12 11 10 9 10 10 10 10 10 10 9 7 6 5 5 4 5 5 6 6 7 8 8 8 8 8 8 8 8 8 8 9 9 9 10 10 10 10 10 10 9 9 10 10 10 10 9 9 9 9 9 9 9 9 10 10 10 10 10 10 10 10 10
15 15 15 15 14 14 13 14 13 13 13 12 11 11 10 10 10 11 12 12 12 12 12 11 10 10 10 10 10 10 10 10 9 7 5 4 4 4 4 6 7 8 8 9 9 9 8 8 7 8 8 9 9 9 9 10 10 10 9 9 9 9 9 9 9 9 9 9 9 9 9 8 8 9 9 9 10 10 11 11 11 11 11 10 10 10
16 15 15 14 14 14 13 13 12 12 11 10 10 10 11 12 12 13 13 13 12 11 11 11 10 10 10 9 9 9 9 8 7 6 3 3 4 5 6 7 8 9 10 10 10 10 9 9 8 7 8 9 9 10 10 10 9 9 9 9 9 9 9 9 9 9 9 9 9 9 9 9 9 9 9 10 10 11 11 11 11 11 11 11 11 11
15 15 14 14 13 13 12 11 11 10 10 10 11 12 13 13 13 13 13 12 11 11 10 10 10 10 9 8 7 7 7 6 5 4 3 3 5 7 7 8 9 10 10 10 10 11 11 10 10 9 9 9 9 10 10 9 9 9 9 9 9 9 9 10 10 10 10 10 9 9 9 9 9 10 10 10 11 11 11 11 11 11 11 11 11 12
14 13 13 12 12 11 10 10 10 10 11 12 13 14 14 13 13 13 12 11 10 10 9 9 9 9 8 7 6 5 5 5 5 5 4 5 6 8 8 9 9 9 10 10 10 11 11 11 11 11 11 10 10 10 10 10 10 9 9 10 10 10 10 10 10 10 10 10 10 9 9 9 9 10 10 10 11 11 11 10 10 11 11 12 12 12
12 12 11 11 10 9 9 10 10 12 13 14 14 14 13 13 12 11 11 10 9 8 7 6 6 6 6 5 5 5 5 6 6 6 7 7 7 8 9 9 10 10 10 10 10 10 11 11 11 11 11 11 11 11 11 10 10 10 10 11 11 11 11 11 11 11 10 10 10 10 9 10 10 10 11 11 11 10 10 10 11 11 12 13 14 14
10 10 9 9 9 9 10 11 13 14 15 14 14 13 12 11 11 10 9 9 8 7 6 5 4 4 3 3 3 4 6 7 8 8 9 9 9 9 10 10 10 10 10 11 11 10 10 10 11 11 10 11 11 11 11 10 10 10 11 12 12 12 12 12 11 10 10 10 10 10 10 10 11 11 11 11 11 11 11 11 12 13 14 14 14 14
9 9 8 9 10 11 13 14 15 15 14 13 12 11 10 10 9 8 8 7 6 6 5 5 4 4 3 3 4 5 6 8 9 9 10 10 10 10 10 11 11 11 11 11 11 10 10 10 11 11 11 12 11 11 10 10 10 11 11 11 12 12 12 11 11 10 10 10 10 11 11 12 12 12 12 12 11 11 12 13 14 14 14 14 13 13
8 9 9 11 12 13 15 15 14 13 12 11 11 10 9 8 8 7 6 6 5 5 4 4 4 5 5 6 6 7 8 9 10 10 10 11 11 11 11 11 12 12 12 11 11 11 11 11 11 11 11 12 12 11 11 10 10 11 11 11 11 12 12 11 11 10 10 11 11 12 12 13 13 13 12 12 12 13 14 15 15 15 14 13 12 12
9 11 12 14 14 15 14 13 12 11 10 10 9 8 8 7 6 5 5 5 4 4 4 5 5 6 7 8 9 10 10 10 10 11 11 11 12 12 12 12 12 11 11 12 12 12 12 12 12 12 11 11 11 12 12 12 12 11 11 11 12 12 12 11 11 11 11 12 12 13 13 13 13 12 12 13 14 15 16 16 15 14 13 12 13 15
12 14 15 15 14 13 12 11 11 10 9 8 7 7 6 6 5 5 5 4 4 4 4 5 6 7 9 10 11 11 11 11 11 12 12 12 12 13 13 12 12 11 11 11 12 12 13 13 13 12 12 11 11 11 12 12 12 12 11 12 12 12 11 11 11 11 12 12 13 13 13 13 12 13 13 14 16 17 16 15 14 13 12 13 14 17
15 15 15 14 13 11 10 10 9 8 7 7 6 6 5 5 5 6 5 5 5 6 6 7 9 10 11 12 12 12 12 12 12 12 12 12 12 12 12 13 12 12 11 11 12 12 13 12 12 12 12 12 12 12 13 13 12 12 12 12 12 11 10 11 11 12 13 13 13 13 13 12 13 14 15 16 17 17 16 14 13 13 14 17 20 24
15 14 13 12 11 10 9 9 8 7 6 6 5 5 6 5 5 5 5 6 7 7 9 10 11 12 13 13 13 13 13 13 12 12 12 12 11 11 12 12 12 12 12 11 12 12 12 12 12 12 12 11 12 12 13 13 12 12 12 12 12 11 12 12 12 12 13 13 13 13 13 13 14 15 16 17 16 15 13 13 13 15 17 22 28 36
13 12 11 10 9 8 8 7 6 6 6 6 6 6 5 5 5 5 5 7 8 9 11 12 12 12 12 12 12 12 12 12 12 12 11 11 11 11 11 12 12 12 11 11 11 11 11 12 12 12 12 12 12 12 12 12 12 12 12 12 12 12 13 13 13 12 12 12 13 13 13 14 15 16 16 16 14 13 12 14 17 21 25 27 33 42
11 10 9 8 7 7 6 6 6 6 6 6 6 5 5 5 5 6 7 9 10 11 12 12 12 12 11 11 11 10 10 11 11 11 12 11 11 11 11 11 11 11 11 11 11 11 11 12 13 13 12 12 12 13 12 12 12 11 12 12 12 13 13 12 12 12 13 13 13 13 14 15 15 15 15 14 13 13 15 18 22 27 31 34 39 46
9 8 7 7 6 6 6 7 7 6 6 5 5 5 5 6 7 8 10 11 12 12 12 12 11 11 11 11 10 10 9 9 10 11 11 12 12 12 12 11 11 11 11 11 11 11 11 12 12 12 12 13 13 13 12 12 12 12 12 12 12 13 13 13 13 13 13 13 13 14 14 15 15 14 13 13 13 16 19 23 26 30 33 36 41 46
7 6 6 7 7 7 7 6 6 5 5 5 5 6 7 9 10 11 12 12 12 12 12 11 10 10 10 10 9 9 9 9 10 10 10 11 11 12 12 11 11 10 10 11 11 12 13 13 12 12 12 13 13 13 12 11 11 11 12 11 11 12 12 13 13 13 12 13 13 14 14 14 13 13 12 12 15 20 26 29 31 32 34 36 40 41
6 7 7 7 7 6 6 5 5 5 5 6 7 9 10 11 12 12 12 12 11 11 10 10 10 10 10 9 9 9 9 9 10 10 10 10 10 11 11 11 11 10 11 11 11 13 14 15 15 14 13 12 12 12 11 11 11 11 11 11 11 11 12 12 12 12 12 13 14 14 14 13 13 12 12 14 19 25 31 34 35 35 35 36 36 33
7 7 7 6 6 5 5 5 6 6 8 9 10 11 12 12 12 12 11 11 10 10 9 9 10 10 10 10 10 10 10 10 10 10 10 10 10 10 10 10 10 10 11 12 13 14 15 16 16 16 14 12 11 10 9 10 10 10 10 11 11 11 12 12 12 12 13 14 15 14 13 12 12 12 13 18 25 31 34 34 34 35 35 33 30 24
7 6 5 5 5 5 6 7 8 9 10 11 12 12 12 11 11 10 10 9 9 9 9 9 10 10 10 11 11 11 12 12 11 10 10 10 10 10 10 10 10 10 11 13 14 15 16 17 17 15 13 12 11 10 9 10 10 10 11 11 12 12 12 12 13 13 14 15 14 13 12 13 13 14 17 23 30 34 34 33 32 33 34 31 24 17
5 5 5 5 6 7 8 10 10 11 12 12 12 11 11 10 10 10 9 9 9 9 10 10 10 10 11 11 11 11 12 11 11 11 11 10 10 10 10 10 10 10 11 12 13 14 15 15 15 14 12 11 10 10 10 11 11 11 11 12 12 12 13 13 13 14 14 14 13 12 11 13 16 20 25 30 33 34 32 30 30 32 34 30 22 14
5 6 6 7 9 10 11 11 12 12 11 11 10 10 9 9 9 9 9 9 10 10 11 11 11 12 12 11 11 11 11 11 10 10 10 10 10 10 10 10 11 11 11 12 12 13 13 13 12 11 10 10 10 10 11 11 11 11 12 12 12 12 13 13 14 14 14 13 12 12 12 16 20 26 30 32 31 30 28 28 30 32 34 28 20 12
Height
5707 5706 5706 5705 5705 5704 5702 5701 5701 5700 5698 5697 5696 5695 5694 5693 5691 5690 5689 5688 5687 5685 5684 5682 5681 5679 5678 5677 5675 5674 5672 5671 5669 5667 5666 5664 5663 5661 5659 5658 5656 5655 5654 5652 5651 5650 5649 5648 5647 5646 5645 5644 5643 5642 5641 5640 5639 5638 5637 5636 5635 5634 5633 5631 5630 5629 5628 5627 5625 5624 5623 5621 5620 5618 5616 5615 5613 5612 5610 5609 5607 5605 5604 5602 5600 5599
5703 5702 5701 5701 5700 5699 5697 5696 5696 5696 5695 5693 5691 5690 5690 5688 5687 5686 5685 5684 5682 5681 5680 5678 5676 5675 5673 5672 5671 5670 5668 5666 5665 5663 5662 5660 5658 5657 5655 5654 5652 5651 5650 5648 5647 5646 5645 5644 5642 5641 5640 5639 5638 5637 5636 5635 5634 5633 5632 5631 5630 5629 5628 5627 5625 5625 5623 5622 5620 5619 5618 5616 5614 5613 5611 5609 5608 5606 5605 5603 5601 5600 5598 5596 5594 5593
5699 5698 5697 5696 5695 5695 5693 5692 5691 5691 5690 5689 5687 5686 5685 5684 5683 5681 5680 5679 5678 5676 5675 5674 5672 5670 5669 5667 5666 5665 5664 5662 5660 5659 5657 5656 5654 5653 5651 5650 5648 5647 5645 5644 5643 5641 5640 5639 5638 5637 5636 5635 5634 5633 5631 5630 5630 5628 5627 5626 5625 5624 5623 5622 5620 5620 5618 5617 5615 5614 5612 5611 5609 5607 5606 5604 5602 5600 5599 5597 5595 5594 5592 5590 5588 5586
5695 5694 5692 5691 5691 5690 5689 5688 5687 5686 5685 5685 5683 5682 5681 5680 5678 5677 5675 5675 5673 5671 5670 5669 5668 5666 5664 5663 5662 5660 5659 5658 5656 5655 5653 5651 5650 5648 5647 5645 5644 5642 5641 5640 5639 5637 5636 5635 5634 5632 5631 5630 5629 5628 5627 5626 5625 5624 5623 5621 5620 5619 5618 5617 5615 5614 5613 5612 5610 5609 5607 5605 5604 5602 5600 5599 5597 5595 5593 5591 5589 5587 5585 5584 5582 5580
5690 5689 5688 5687 5686 5685 5684 5683 5683 5682 5681 5680 5679 5678 5676 5675 5674 5672 5671 5670 5668 5667 5665 5664 5663 5661 5660 5658 5657 5656 5655 5653 5651 5650 5649 5647 5645 5644 5643 5641 5640 5638 5637 5635 5634 5633 5632 5630 5629 5628 5627 5626 5625 5623 5622 5621 5620 5619 5618 5616 5615 5614 5613 5611 5610 5609 5608 5606 5605 5603 5602 5600 5598 5596 5595 5593 5591 5589 5587 5585 5583 5581 5580 5578 5575 5574
5685 5684 5683 5683 5681 5680 5679 5679 5678 5678 5677 5676 5675 5673 5672 5671 5670 5668 5667 5665 5664 5662 5661 5659 5658 5657 5655 5654 5653 5651 5650 5649 5647 5645 5644 5642 5641 5640 5638 5637 5635 5634 5633 5631 5630 5629 5627 5626 5625 5623 5622 5621 5620 5619 5617 5616 5615 5614 5613 5611 5610 5609 5608 5606 5605 5604 5602 5601 5600 5598 5596 5594 5593 5591 5589 5587 5585 5583 5581 5579 5577 5575 5573 5571 5569 5567
5680 5680 5679 5678 5677 5676 5675 5674 5674 5673 5673 5671 5670 5669 5668 5666 5665 5664 5662 5661 5659 5658 5656 5655 5653 5652 5651 5650 5648 5647 5645 5644 5642 5640 5639 5638 5636 5635 5634 5632 5631 5630 5628 5627 5625 5624 5623 5621 5620 5619 5618 5616 5615 5614 5613 5611 5610 5609 5608 5606 5605 5604 5602 5601 5600 5598 5597 5595 5594 5592 5590 5589 5587 5585 5583 5581 5579 5577 5575 5573 5571 5569 5567 5565 5563 5561
5675 5675 5674 5674 5673 5672 5670 5670 5669 5669 5669 5667 5666 5665 5663 5662 5661 5660 5658 5657 5655 5654 5652 5650 5648 5647 5646 5645 5644 5643 5641 5640 5638 5636 5635 5633 5632 5630 5629 5628 5626 5625 5624 5622 5621 5620 5618 5617 5616 5615 5613 5612 5611 5609 5608 5607 5605 5604 5603 5601 5600 5599 5597 5596 5594 5593 5591 5590 5588 5586 5585 5583 5581 5579 5577 5575 5573 5571 5569 5567 5565 5563 5561 5559 5557 5555
5671 5670 5670 5669 5669 5668 5667 5665 5665 5664 5664 5663 5662 5660 5660 5658 5656 5655 5654 5652 5650 5649 5648 5646 5644 5642 5640 5640 5639 5638 5637 5635 5633 5632 5630 5629 5627 5626 5625 5623 5622 5620 5619 5618 5616 5615 5614 5613 5611 5610 5609 5607 5606 5605 5603 5602 5600 5599 5598 5596 5595 5593 5592 5590 5589 5587 5586 5584 5582 5580 5579 5577 5575 5573 5571 5570 5567 5565 5563 5561 5559 5557 5555 5553 5550 5548
5667 5666 5665 5664 5664 5664 5663 5662 5660 5659 5660 5659 5657 5656 5655 5654 5653 5651 5649 5647 5646 5645 5644 5642 5640 5638 5636 5635 5634 5633 5632 5630 5629 5628 5626 5624 5623 5621 5620 5619 5617 5616 5615 5613 5612 5611 5610 5608 5607 5606 5605 5603 5601 5600 5599 5597 5595 5594 5593 5591 5590 5588 5587 5585 5583 5582 5580 5578 5576 5575 5573 5571 5569 5567 5565 5563 5561 5559 5557 5555 5553 5551 5549 5546 5544 5541
5662 5662 5661 5660 5659 5659 5659 5658 5656 5655 5655 5654 5653 5651 5650 5650 5649 5648 5645 5643 5641 5640 5639 5637 5636 5634 5632 5630 5629 5628 5627 5626 5624 5623 5622 5620 5619 5617 5616 5615 5613 5612 5610 5609 5607 5606 5605 5604 5603 5601 5600 5598 5597 5595 5594 5592 5591 5589 5587 5586 5584 5583 5581 5579 5578 5576 5574 5572 5570 5568 5566 5565 5563 5561 5559 5557 5555 5553 5551 5549 5546 5544 5542 5540 5537 5535
5658 5657 5657 5656 5655 5654 5654 5653 5652 5651 5650 5649 5648 5647 5645 5645 5645 5644 5642 5639 5637 5636 5635 5632 5630 5629 5628 5626 5625 5624 5623 5621 5620 5618 5617 5615 5614 5613 5611 5610 5609 5607 5606 5605 5603 5602 5600 5600 5598 5597 5595 5594 5592 5590 5589 5587 5585 5584 5582 5580 5579 5577 5575 5574 5572 5570 5568 5566 5564 5562 5560 5558 5556 5554 5552 5550 5548 5546 5544 5542 5540 5538 5535 5533 5530 5528
5654 5653 5653 5651 5650 5650 5649 5649 5648 5646 5645 5645 5644 5642 5641 5640 5640 5639 5638 5636 5634 5632 5631 5629 5626 5624 5623 5622 5621 5620 5619 5617 5615 5614 5612 5610 5609 5608 5607 5606 5605 5603 5602 5600 5599 5597 5596 5595 5594 5592 5590 5589 5587 5585 5584 5582 5580 5579 5577 5575 5573 5572 5570 5568 5566 5564 5562 5560 5558 5555 5554 5552 5550 5548 5546 5544 5542 5540 5537 5535 5533 5530 5528 5526 5523 5521
5650 5649 5648 5647 5646 5645 5645 5644 5643 5642 5640 5640 5640 5639 5637 5636 5635 5634 5634 5632 5630 5628 5627 5625 5622 5620 5618 5617 5616 5616 5615 5613 5612 5610 5608 5606 5604 5604 5603 5601 5600 5599 5597 5595 5594 5593 5592 5590 5589 5587 5585 5584 5582 5580 5579 5577 5575 5574 5572 5570 5568 5566 5564 5562 5560 5558 5555 5554 5551 5549 5547 5545 5543 5541 5539 5537 5535 5532 5530 5528 5525 5523 5521 5519 5516 5514
5645 5645 5644 5642 5641 5641 5640 5640 5639 5637 5636 5635 5635 5634 5633 5631 5630 5630 5629 5627 5625 5624 5623 5621 5618 5616 5613 5612 5611 5611 5611 5610 5608 5606 5604 5602 5600 5599 5599 5597 5596 5595 5593 5591 5590 5588 5587 5586 5584 5582 5580 5579 5577 5575 5574 5572 5570 5568 5566 5565 5562 5560 5558 5556 5554 5552 5550 5547 5545 5543 5540 5538 5536 5534 5532 5530 5527 5525 5523 5520 5518 5516 5514 5511 5509 5506
5640 5640 5639 5638 5637 5636 5636 5635 5635 5634 5632 5631 5630 5630 5629 5627 5626 5625 5624 5623 5621 5620 5618 5616 5614 5611 5609 5607 5607 5607 5607 5606 5605 5603 5601 5598 5595 5595 5595 5594 5592 5591 5589 5587 5585 5584 5583 5581 5579 5577 5575 5574 5572 5570 5568 5567 5565 5563 5561 5559 5556 5554 5552 5550 5548 5545 5543 5541 5539 5536 5534 5532 5529 5527 5525 5522 5520 5518 5515 5513 5511 5508 5506 5504 5501 5499
5636 5635 5635 5634 5633 5632 5631 5631 5630 5630 5628 5627 5626 5625 5624 5623 5621 5620 5619 5618 5617 5615 5613 5612 5610 5607 5605 5602 5601 5602 5603 5602 5600 5599 5598 5595 5592 5590 5590 5590 5588 5587 5585 5583 5581 5580 5578 5576 5575 5573 5571 5569 5567 5565 5563 5561 5559 5557 5555 5553 5550 5548 5546 5544 5541 5539 5537 5534 5532 5530 5527 5525 5522 5520 5517 5515 5513 5510 5508 5505 5503 5501 5498 5496 5493 5491
5632 5631 5630 5630 5628 5627 5627 5626 5626 5625 5624 5623 5622 5620 5619 5618 5617 5616 5615 5613 5612 5610 5609 5607 5606 5604 5601 5599 5596 5597 5598 5598 5596 5595 5594 5591 5588 5586 5585 5585 5584 5583 5581 5579 5577 5575 5574 5572 5570 5568 5565 5564 5561 5560 5557 5555 5553 5551 5549 5546 5544 5542 5540 5537 5535 5533 5530 5528 5525 5523 5520 5518 5515 5513 5510 5508 5505 5503 5500 5498 5495 5493 5490 5488 5485 5483
5627 5627 5626 5625 5625 5623 5622 5622 5621 5621 5620 5619 5618 5616 5615 5613 5612 5611 5610 5609 5608 5606 5605 5603 5601 5600 5598 5595 5593 5592 5593 5593 5592 5592 5591 5588 5585 5583 5581 5581 5580 5579 5577 5575 5573 5571 5569 5567 5565 5563 5560 5558 5556 5554 5552 5550 5547 5545 5542 5540 5538 5535 5533 5531 5529 5526 5524 5521 5519 5516 5514 5511 5509 5506 5503 5501 5498 5495 5493 5490 5488 5485 5483 5480 5477 5475
5623 5622 5622 5622 5621 5620 5618 5617 5617 5616 5615 5614 5613 5612 5610 5609 5608 5607 5605 5604 5603 5602 5600 5599 5597 5595 5594 5592 5590 5589 5589 5589 5588 5588 5587 5585 5582 5579 5578 5577 5576 5575 5573 5570 5568 5567 5565 5563 5560 5558 5555 5553 5551 5549 5546 5544 5541 5539 5536 5534 5531 5529 5527 5525 5522 5520 5517 5515 5512 5510 5507 5505 5502 5499 5497 5494 5491 5489 5486 5483 5480 5478 5475 5472 5469 5466
5619 5618 5617 5618 5617 5616 5614 5613 5612 5612 5611 5610 5609 5607 5606 5605 5603 5602 5601 5600 5599 5597 5596 5595 5593 5591 5590 5588 5586 5585 5585 5585 5584 5584 5583 5581 5579 5576 5574 5573 5572 5571 5569 5566 5565 5563 5561 5558 5555 5553 5550 5548 5545 5543 5540 5538 5535 5533 5530 5528 5525 5523 5521 5519 5516 5514 5511 5509 5506 5504 5501 5498 5495 5493 5490 5487 5485 5481 5479 5476 5473 5470 5467 5464 5461 5458
5615 5614 5613 5613 5613 5612 5610 5609 5608 5607 5606 5605 5605 5603 5602 5601 5599 5598 5596 5596 5595 5593 5592 5590 5588 5587 5585 5584 5582 5581 5580 5580 5580 5580 5579 5578 5575 5573 5571 5570 5569 5567 5565 5563 5561 5559 5556 5554 5551 5548 5546 5543 5540 5538 5535 5532 5530 5527 5525 5522 5520 5518 5515 5513 5510 5508 5505 5503 5500 5498 5495 5492 5489 5486 5484 5480 5478 5474 5471 5468 5465 5462 5459 5456 5453 5450
5611 5610 5609 5608 5608 5607 5606 5605 5603 5602 5602 5601 5600 5599 5598 5596 5595 5594 5592 5591 5590 5589 5588 5586 5585 5583 5581 5580 5578 5577 5576 5576 5576 5575 5575 5574 5572 5570 5567 5566 5565 5563 5562 5560 5557 5555 5552 5550 5547 5544 5541 5539 5536 5533 5530 5527 5525 5522 5519 5517 5514 5512 5510 5507 5505 5502 5500 5497 5494 5491 5489 5486 5483 5480 5477 5474 5470 5467 5464 5460 5457 5454 5451 5448 5445 5442
5607 5606 5605 5604 5604 5603 5602 5600 5600 5598 5598 5597 5596 5594 5593 5592 5590 5589 5588 5587 5586 5585 5584 5582 5581 5579 5577 5576 5575 5573 5572 5572 5572 5572 5571 5570 5568 5566 5564 5563 5561 5560 5558 5556 5554 5551 5549 5545 5543 5540 5537 5534 5531 5528 5525 5522 5520 5516 5514 5511 5509 5506 5504 5502 5499 5497 5494 5491 5488 5485 5483 5480 5476 5473 5470 5467 5463 5460 5456 5453 5450 5446 5444 5440 5438 5435
5603 5602 5601 5600 5600 5599 5598 5596 5595 5595 5593 5592 5591 5590 5589 5588 5586 5585 5584 5583 5582 5581 5580 5579 5577 5575 5574 5573 5571 5569 5568 5568 5568 5568 5567 5565 5564 5562 5560 5559 5558 5556 5554 5552 5550 5547 5545 5542 5539 5535 5533 5530 5527 5524 5521 5518 5515 5511 5509 5506 5503 5501 5498 5496 5493 5491 5488 5485 5482 5480 5476 5473 5470 5467 5463 5460 5456 5453 5449 5446 5442 5439 5436 5433 5430 5428
5599 5598 5597 5596 5595 5595 5594 5593 5591 5590 5590 5589 5587 5586 5585 5584 5583 5582 5580 5580 5579 5578 5576 5575 5573 5571 5570 5569 5567 5565 5565 5564 5564 5564 5563 5561 5559 5557 5556 5555 5554 5552 5550 5548 5546 5544 5541 5538 5535 5531 5528 5525 5522 5520 5516 5513 5510 5507 5504 5501 5498 5495 5493 5490 5488 5485 5482 5480 5476 5473 5470 5467 5464 5460 5457 5453 5450 5446 5442 5439 5435 5432 5429 5426 5423 5420
5595 5594 5593 5592 5591 5590 5590 5589 5588 5587 5585 5585 5583 5582 5581 5580 5579 5578 5577 5576 5575 5574 5572 5570 5569 5568 5566 5565 5563 5562 5561 5560 5560 5560 5559 5557 5555 5553 5552 5551 5549 5548 5546 5545 5542 5540 5537 5534 5531 5528 5525 5521 5518 5515 5512 5509 5505 5502 5499 5496 5493 5490 5487 5485 5482 5480 5477 5474 5471 5468 5464 5461 5458 5454 5450 5447 5443 5439 5435 5431 5428 5424 5421 5418 5415 5413
5591 5590 5589 5589 5588 5587 5586 5585 5584 5583 5582 5580 5580 5579 5578 5577 5575 5574 5573 5572 5571 5570 5568 5567 5565 5564 5563 5561 5560 5558 5557 5557 5556 5555 5555 5553 5550 5549 5548 5546 5545 5544 5542 5540 5539 5536 5533 5530 5526 5524 5520 5517 5514 5511 5507 5504 5501 5498 5495 5492 5489 5486 5483 5480 5477 5474 5471 5468 5465 5462 5458 5455 5451 5448 5444 5440 5436 5432 5428 5424 5420 5417 5414 5411 5408 5405
5587 5586 5585 5585 5584 5583 5582 5581 5580 5579 5578 5577 5576 5575 5574 5573 5572 5571 5570 5569 5568 5566 5564 5563 5562 5560 5559 5558 5556 5555 5554 5553 5553 5552 5550 5549 5546 5545 5544 5542 5540 5539 5538 5536 5534 5532 5530 5526 5522 5519 5516 5513 5510 5507 5503 5500 5497 5494 5491 5488 5485 5481 5478 5475 5472 5469 5466 5463 5460 5456 5452 5449 5445 5441 5437 5433 5429 5425 5421 5417 5413 5409 5406 5403 5400 5397
5583 5582 5581 5580 5580 5579 5578 5577 5576 5575 5574 5573 5572 5571 5570 5569 5568 5567 5566 5565 5564 5562 5560 5560 5558 5557 5556 5554 5553 5551 5550 5549 5549 5548 5546 5544 5542 5541 5540 5538 5535 5534 5533 5531 5529 5528 5526 5523 5519 5515 5512 5509 5506 5502 5499 5496 5493 5490 5487 5484 5481 5478 5474 5471 5468 5465 5461 5458 5455 5450 5447 5443 5439 5435 5431 5427 5423 5418 5414 5410 5405 5401 5398 5395 5392 5389
5579 5578 5577 5576 5576 5575 5574 5573 5572 5571 5570 5570 5569 5567 5566 5565 5564 5563 5562 5560 5560 5559 5557 5556 5555 5553 5552 5550 5549 5547 5546 5545 5545 5544 5542 5540 5538 5537 5535 5533 5530 5529 5527 5525 5523 5522 5520 5519 5516 5512 5508 5504 5501 5498 5495 5491 5488 5485 5483 5480 5477 5474 5470 5467 5463 5460 5457 5453 5449 5445 5441 5437 5433 5429 5425 5420 5416 5412 5407 5402 5398 5393 5390 5386 5384 5381
5575 5574 5574 5573 5572 5571 5570 5570 5569 5568 5567 5566 5565 5564 5563 5562 5560 5559 5558 5557 5556 5555 5553 5552 5550 5549 5548 5546 5545 5543 5542 5541 5540 5539 5538 5536 5534 5532 5531 5528 5525 5523 5521 5520 5518 5516 5514 5513 5511 5509 5505 5500 5496 5493 5490 5487 5484 5481 5478 5475 5472 5469 5465 5462 5458 5455 5451 5448 5444 5440 5435 5431 5427 5423 5419 5414 5410 5405 5401 5396 5391 5386 5382 5378 5375 5373
5571 5570 5570 5569 5568 5568 5567 5566 5565 5564 5563 5562 5561 5560 5559 5558 5557 5555 5554 5553 5552 5550 5549 5548 5547 5545 5544 5543 5541 5540 5538 5537 5536 5535 5533 5531 5529 5527 5526 5523 5521 5518 5516 5515 5513 5511 5509 5506 5505 5503 5500 5497 5493 5488 5485 5481 5479 5476 5473 5470 5467 5463 5460 5456 5453 5449 5445 5442 5438 5434 5430 5426 5422 5418 5413 5409 5405 5400 5395 5390 5385 5379 5375 5370 5367 5364
5568 5567 5566 5565 5565 5564 5563 5562 5561 5560 5560 5559 5558 5557 5555 5554 5553 5552 5550 5549 5548 5546 5545 5544 5543 5541 5540 5539 5537 5535 5534 5532 5531 5530 5528 5527 5525 5523 5521 5519 5516 5514 5512 5510 5507 5505 5503 5501 5499 5497 5495 5492 5489 5484 5480 5476 5473 5470 5467 5465 5461 5457 5454 5450 5446 5443 5440 5436 5432 5429 5425 5421 5417 5413 5409 5404 5400 5395 5390 5385 5379 5374 5368 5363 5359 5355
5564 5564 5563 5562 5561 5561 5560 5559 5558 5557 5556 5555 5554 5553 5552 5550 5549 5548 5547 5545 5544 5543 5541 5540 5539 5537 5536 5535 5533 5531 5530 5528 5527 5525 5524 5522 5520 5518 5516 5514 5511 5509 5507 5504 5502 5500 5498 5495 5493 5491 5488 5486 5483 5480 5475 5471 5468 5464 5461 5458 5455 5452 5448 5444 5440 5437 5434 5430 5427 5423 5420 5416 5412 5408 5404 5400 5395 5390 5385 5380 5374 5368 5362 5356 5351 5347
5561 5560 5560 5559 5558 5557 5557 5556 5555 5554 5553 5552 5550 5550 5548 5547 5546 5545 5543 5542 5540 5539 5538 5536 5535 5534 5532 5531 5529 5527 5525 5524 5522 5520 5519 5517 5515 5514 5511 5509 5507 5505 5502 5499 5497 5495 5493 5490 5487 5485 5483 5480 5477 5474 5470 5467 5463 5460 5456 5453 5450 5446 5442 5438 5435 5431 5428 5425 5421 5418 5414 5410 5407 5403 5398 5394 5389 5384 5379 5374 5368 5362 5356 5350 5345 5340
5558 5558 5557 5556 5555 5554 5553 5552 5551 5550 5550 5548 5547 5546 5545 5544 5542 5541 5540 5538 5537 5536 5534 5533 5531 5530 5528 5527 5525 5523 5521 5519 5517 5515 5514 5512 5510 5509 5506 5504 5501 5499 5497 5494 5491 5489 5487 5484 5481 5479 5477 5474 5471 5468 5465 5462 5459 5455 5452 5449 5445 5441 5436 5432 5429 5426 5422 5419 5416 5412 5409 5405 5400 5396 5392 5388 5383 5378 5373 5368 5362 5356 5350 5345 5339 5334
5555 5554 5554 5553 5552 5551 5550 5549 5548 5547 5546 5545 5544 5543 5541 5540 5539 5538 5536 5535 5534 5532 5531 5529 5527 5526 5524 5523 5521 5519 5517 5515 5513 5511 5509 5507 5505 5504 5501 5499 5496 5493 5491 5488 5485 5482 5480 5478 5475 5473 5471 5469 5466 5463 5460 5456 5453 5450 5448 5445 5441 5437 5432 5427 5423 5420 5416 5413 5410 5406 5402 5399 5395 5390 5386 5381 5376 5372 5366 5361 5356 5350 5345 5339 5334 5329
5551 5551 5550 5550 5549 5548 5547 5546 5545 5544 5543 5542 5540 5539 5538 5537 5535 5534 5533 5532 5530 5529 5527 5525 5524 5522 5520 5518 5516 5515 5513 5511 5509 5507 5505 5502 5500 5498 5496 5494 5491 5488 5485 5482 5480 5477 5475 5472 5469 5467 5465 5463 5460 5458 5455 5451 5448 5445 5443 5440 5437 5433 5428 5423 5418 5414 5410 5407 5404 5400 5396 5392 5388 5384 5380 5375 5370 5365 5360 5355 5350 5345 5339 5334 5329 5324
5548 5548 5547 5546 5545 5545 5544 5543 5541 5540 5540 5539 5537 5536 5535 5534 5532 5531 5530 5529 5527 5525 5524 5522 5520 5518 5516 5514 5512 5510 5508 5506 5504 5502 5500 5497 5495 5493 5491 5488 5486 5483 5480 5477 5475 5472 5469 5466 5463 5461 5459 5457 5455 5452 5449 5446 5443 5440 5437 5435 5432 5428 5424 5419 5413 5408 5405 5401 5398 5394 5390 5386 5382 5378 5374 5369 5364 5359 5354 5349 5344 5339 5333 5328 5323 5319
5545 5545 5544 5543 5542 5541 5540 5539 5538 5537 5536 5535 5534 5533 5532 5531 5530 5528 5526 5525 5524 5522 5520 5519 5517 5514 5512 5510 5508 5506 5504 5502 5500 5497 5495 5493 5490 5488 5486 5483 5481 5479 5476 5473 5470 5467 5465 5461 5458 5455 5453 5451 5449 5446 5444 5441 5438 5435 5431 5429 5426 5423 5419 5415 5409 5404 5399 5395 5392 5388 5385 5381 5377 5373 5368 5363 5358 5352 5347 5342 5337 5332 5327 5322 5317 5313
5542 5542 5541 5540 5539 5538 5537 5536 5535 5535 5533 5532 5531 5530 5529 5528 5526 5525 5524 5522 5520 5519 5517 5515 5513 5511 5509 5506 5504 5502 5500 5497 5495 5493 5491 5489 5486 5484 5481 5479 5476 5474 5471 5469 5466 5463 5460 5457 5454 5450 5447 5445 5443 5441 5438 5436 5433 5430 5426 5423 5420 5417 5414 5410 5405 5400 5395 5390 5386 5382 5379 5375 5371 5367 5363 5358 5353 5347 5341 5336 5331 5326 5320 5315 5310 5306
5540 5539 5538 5537 5536 5535 5534 5533 5532 5531 5530 5530 5529 5527 5526 5525 5523 5522 5520 5519 5517 5515 5514 5512 5510 5508 5505 5503 5500 5498 5495 5493 5491 5489 5486 5484 5482 5480 5477 5474 5472 5469 5467 5465 5461 5458 5455 5452 5450 5446 5443 5440 5438 5435 5433 5431 5428 5425 5422 5418 5415 5411 5407 5403 5400 5396 5391 5386 5382 5377 5373 5370 5366 5362 5358 5353 5348 5342 5336 5330 5325 5320 5315 5310 5305 5301
5536 5535 5535 5534 5533 5532 5531 5530 5530 5529 5528 5527 5525 5524 5523 5522 5520 5519 5517 5515 5514 5512 5510 5508 5506 5504 5502 5500 5497 5495 5491 5489 5487 5485 5482 5480 5478 5475 5473 5470 5467 5465 5462 5460 5457 5454 5451 5448 5445 5442 5439 5436 5433 5430 5427 5425 5423 5420 5417 5413 5410 5405 5402 5398 5394 5390 5386 5382 5377 5373 5368 5364 5360 5356 5352 5348 5343 5337 5331 5325 5320 5314 5309 5305 5300 5297
5533 5533 5532 5531 5530 5530 5529 5528 5527 5526 5525 5524 5522 5521 5520 5518 5517 5515 5514 5512 5510 5509 5507 5505 5503 5500 5498 5496 5494 5491 5488 5485 5483 5480 5478 5476 5473 5471 5469 5466 5463 5460 5458 5455 5453 5450 5447 5444 5440 5437 5434 5432 5429 5426 5423 5420 5418 5415 5413 5410 5405 5401 5397 5393 5389 5385 5381 5377 5373 5368 5364 5359 5355 5351 5347 5343 5339 5333 5327 5320 5315 5309 5304 5300 5296 5293
5531 5530 5530 5529 5528 5527 5526 5525 5524 5523 5522 5520 5519 5518 5516 5515 5514 5512 5510 5509 5507 5505 5503 5501 5499 5496 5494 5492 5490 5488 5485 5482 5480 5477 5475 5472 5469 5467 5465 5462 5459 5456 5454 5450 5448 5445 5442 5439 5436 5432 5430 5427 5425 5422 5419 5416 5413 5410 5408 5405 5402 5398 5393 5389 5385 5380 5376 5372 5368 5363 5359 5354 5350 5346 5342 5338 5334 5328 5322 5316 5310 5305 5300 5296 5293 5290
5528 5528 5527 5526 5525 5524 5523 5522 5521 5520 5519 5517 5516 5515 5513 5512 5510 5508 5507 5505 5503 5501 5499 5497 5495 5492 5490 5488 5486 5484 5481 5479 5477 5474 5472 5469 5466 5463 5460 5458 5455 5452 5450 5447 5444 5440 5437 5434 5431 5428 5425 5422 5420 5417 5415 5413 5410 5407 5404 5401 5398 5394 5390 5385 5381 5376 5372 5367 5363 5359 5354 5349 5345 5340 5336 5332 5328 5324 5318 5312 5307 5301 5296 5292 5290 5288
5526 5525 5524 5523 5522 5521 5520 5519 5518 5517 5515 5514 5513 5511 5510 5508 5506 5505 5503 5501 5499 5497 5495 5493 5490 5488 5486 5484 5482 5480 5478 5475 5473 5471 5469 5466 5463 5460 5458 5455 5452 5449 5446 5444 5441 5438 5434 5430 5427 5423 5420 5418 5415 5413 5411 5409 5407 5403 5400 5396 5393 5389 5385 5381 5377 5372 5367 5363 5358 5354 5349 5344 5339 5334 5330 5325 5322 5318 5314 5309 5304 5299 5294 5290 5287 5285
5523 5522 5521 5520 5519 5518 5517 5516 5515 5514 5512 5511 5509 5508 5506 5505 5503 5501 5499 5497 5495 5493 5491 5489 5486 5484 5482 5480 5478 5476 5474 5471 5469 5467 5465 5463 5460 5457 5455 5452 5449 5446 5444 5441 5438 5435 5432 5428 5424 5420 5417 5414 5411 5409 5407 5405 5403 5400 5396 5392 5388 5385 5380 5377 5373 5368 5364 5359 5354 5349 5344 5339 5334 5328 5324 5320 5316 5313 5309 5305 5301 5296 5292 5288 5285 5283
5520 5519 5518 5517 5516 5515 5514 5513 5512 5510 5509 5507 5506 5504 5502 5500 5499 5497 5495 5493 5491 5489 5487 5485 5483 5481 5478 5476 5474 5472 5470 5467 5465 5463 5461 5459 5456 5454 5451 5449 5446 5444 5441 5439 5436 5434 5430 5427 5423 5418 5414 5410 5407 5404 5401 5400 5398 5396 5393 5389 5384 5380 5376 5372 5368 5364 5359 5354 5349 5344 5339 5334 5329 5323 5319 5314 5310 5307 5304 5301 5298 5294 5290 5287 5284 5282
5517 5516 5515 5514 5513 5512 5511 5510 5508 5507 5505 5504 5502 5500 5499 5497 5495 5493 5491 5490 5488 5485 5484 5481 5480 5477 5475 5472 5470 5468 5466 5464 5461 5459 5457 5455 5453 5450 5448 5445 5443 5441 5439 5436 5434 5431 5429 5426 5422 5417 5412 5407 5403 5400 5397 5395 5393 5391 5388 5385 5381 5376 5372 5368 5364 5360 5355 5350 5345 5340 5335 5330 5324 5319 5315 5310 5306 5302 5300 5297 5295 5292 5289 5285 5283 5280